BAW9CM KJFK-EGLL

Flight info

Callsign BAW9CM
Flight time N/A
Altitude 39000
Route MERIT DCT HFD DCT PUT DCT TOPPS N683B NEEKO/M086F400 DCT 54N050W 55N040W 55N030W 54N020W DCT MALOT DCT GISTI/N0493F410 DCT EVRIN DCT JETZI DCT AMFUL DCT ORZEB/N0386F230 P2 SIRIC
Aircraft A388/J-SADE2E3FGHIJ3J4J5M1RWXY/LB1D1

Departure

Time 2026-05-01 13:17
Airport John F. Kennedy International Airport (KJFK)

Arrival

Time N/A
Airport London Heathrow Airport (EGLL)
Time Latitude Longitude Altitude Speed Heading
2026-05-01 13:07 40.64150 -73.78050 31 ft 0 kts 151°
2026-05-01 13:11 40.64149 -73.78050 25 ft 1 kts 151°
2026-05-01 13:12 40.64114 -73.78023 29 ft 11 kts 149°
2026-05-01 13:12 40.63986 -73.77950 28 ft 25 kts 167°
2026-05-01 13:12 40.63800 -73.77924 28 ft 29 kts 174°
2026-05-01 13:12 40.63627 -73.77892 28 ft 15 kts 162°
2026-05-01 13:13 40.63617 -73.77887 28 ft 0 kts 159°
2026-05-01 13:13 40.63568 -73.77838 30 ft 20 kts 125°
2026-05-01 13:13 40.63479 -73.77745 29 ft 12 kts 187°
2026-05-01 13:13 40.63417 -73.77777 27 ft 17 kts 211°
2026-05-01 13:14 40.63334 -73.77814 28 ft 8 kts 155°
2026-05-01 13:14 40.63252 -73.77678 29 ft 17 kts 115°
2026-05-01 13:14 40.63172 -73.77510 26 ft 28 kts 122°
2026-05-01 13:14 40.63070 -73.77274 26 ft 28 kts 120°
2026-05-01 13:15 40.62995 -73.77117 31 ft 7 kts 139°
2026-05-01 13:15 40.62953 -73.77089 30 ft 20 kts 179°
2026-05-01 13:15 40.62875 -73.77138 27 ft 15 kts 211°
2026-05-01 13:15 40.62830 -73.77219 27 ft 11 kts 267°
2026-05-01 13:16 40.62855 -73.77311 28 ft 11 kts 303°
2026-05-01 13:16 40.62904 -73.77410 29 ft 19 kts 303°
2026-05-01 13:16 40.63099 -73.77836 31 ft 101 kts 300°
2026-05-01 13:17 40.64297 -73.81485 1402 ft 191 kts 268°
2026-05-01 13:17 40.63894 -73.83296 2212 ft 219 kts 251°
2026-05-01 13:18 40.63446 -73.87340 3048 ft 247 kts 290°
2026-05-01 13:18 40.64382 -73.89222 3567 ft 251 kts 321°
2026-05-01 13:18 40.65872 -73.90134 4858 ft 245 kts 348°
2026-05-01 13:18 40.67603 -73.90001 6015 ft 258 kts 14°
2026-05-01 13:19 40.69163 -73.88756 7075 ft 273 kts 40°
2026-05-01 13:19 40.70197 -73.86592 8186 ft 288 kts 65°
2026-05-01 13:19 40.71339 -73.81636 10145 ft 298 kts 58°
2026-05-01 13:20 40.72304 -73.79524 10650 ft 312 kts 46°
2026-05-01 13:20 40.73828 -73.77360 10998 ft 332 kts 36°
2026-05-01 13:20 40.75655 -73.75371 11497 ft 347 kts 32°
2026-05-01 13:21 40.79601 -73.71551 12985 ft 364 kts 30°
2026-05-01 13:21 40.81677 -73.69559 13738 ft 373 kts 31°
2026-05-01 13:21 40.83791 -73.67514 14515 ft 379 kts 31°
2026-05-01 13:21 40.85924 -73.65433 15329 ft 383 kts 31°
2026-05-01 13:22 40.88078 -73.63324 16098 ft 388 kts 31°
2026-05-01 13:22 40.90259 -73.61185 16872 ft 393 kts 31°
2026-05-01 13:22 40.92465 -73.59021 17638 ft 397 kts 31°
2026-05-01 13:22 40.94656 -73.56870 18346 ft 402 kts 31°
2026-05-01 13:23 40.96918 -73.54649 18955 ft 407 kts 31°
2026-05-01 13:23 40.99201 -73.52405 19565 ft 412 kts 31°
2026-05-01 13:23 41.01509 -73.50135 20197 ft 416 kts 31°
2026-05-01 13:23 41.03844 -73.47835 20798 ft 421 kts 31°
2026-05-01 13:24 41.06206 -73.45507 21366 ft 426 kts 31°
2026-05-01 13:24 41.08596 -73.43149 21956 ft 430 kts 31°
2026-05-01 13:24 41.11011 -73.40764 22538 ft 435 kts 31°
2026-05-01 13:25 41.15913 -73.35916 23653 ft 444 kts 31°
2026-05-01 13:25 41.18402 -73.33450 24188 ft 448 kts 31°
2026-05-01 13:25 41.20902 -73.30970 24784 ft 449 kts 31°
2026-05-01 13:25 41.23418 -73.28474 25229 ft 455 kts 31°
2026-05-01 13:26 41.25966 -73.25944 25757 ft 459 kts 31°
2026-05-01 13:26 41.28515 -73.23409 26312 ft 463 kts 31°
2026-05-01 13:26 41.31106 -73.20830 26912 ft 467 kts 31°
2026-05-01 13:26 41.33721 -73.18225 27479 ft 472 kts 31°
2026-05-01 13:27 41.36300 -73.15475 28045 ft 481 kts 37°
2026-05-01 13:27 41.38611 -73.12203 28724 ft 491 kts 47°
2026-05-01 13:27 41.42332 -73.04404 29854 ft 506 kts 57°
2026-05-01 13:28 41.45931 -72.96254 30948 ft 514 kts 56°
2026-05-01 13:28 41.47758 -72.92123 31475 ft 517 kts 57°
2026-05-01 13:29 41.51430 -72.83784 32498 ft 527 kts 57°
2026-05-01 13:29 41.55141 -72.75323 33501 ft 535 kts 58°
2026-05-01 13:30 41.62744 -72.57908 35480 ft 546 kts 58°
2026-05-01 13:31 41.66599 -72.49154 36690 ft 545 kts 57°
2026-05-01 13:31 41.72494 -72.36152 38510 ft 544 kts 57°
2026-05-01 13:32 41.76413 -72.27436 38925 ft 541 kts 58°
2026-05-01 13:33 41.86118 -72.05700 38939 ft 543 kts 58°
2026-05-01 13:34 41.94007 -71.88415 38914 ft 542 kts 52°
2026-05-01 13:35 41.98953 -71.80813 38925 ft 539 kts 41°
2026-05-01 13:35 42.01750 -71.77465 38928 ft 537 kts 37°
2026-05-01 13:36 42.10335 -71.67770 38924 ft 537 kts 38°
2026-05-01 13:36 42.18918 -71.58041 38924 ft 537 kts 38°
2026-05-01 13:37 42.24637 -71.51546 38935 ft 536 kts 38°
2026-05-01 13:37 42.30340 -71.45054 38922 ft 536 kts 38°
2026-05-01 13:38 42.38890 -71.35289 38913 ft 536 kts 38°
2026-05-01 13:39 42.44550 -71.28804 38910 ft 535 kts 38°
2026-05-01 13:39 42.50231 -71.22282 38925 ft 535 kts 39°
2026-05-01 13:40 42.55907 -71.15746 38918 ft 535 kts 39°
2026-05-01 13:40 42.61572 -71.09207 38918 ft 534 kts 39°
2026-05-01 13:41 42.67206 -71.02691 38909 ft 534 kts 39°
2026-05-01 13:41 42.72857 -70.96135 38914 ft 534 kts 39°
2026-05-01 13:42 42.78501 -70.89572 38900 ft 533 kts 39°
2026-05-01 13:42 42.84138 -70.83004 38887 ft 533 kts 40°
2026-05-01 13:43 42.89766 -70.76426 38858 ft 533 kts 40°
2026-05-01 13:43 42.95399 -70.69827 38860 ft 533 kts 40°
2026-05-01 13:44 43.01029 -70.63216 38856 ft 534 kts 40°
2026-05-01 13:44 43.06653 -70.56594 38855 ft 534 kts 40°
2026-05-01 13:45 43.12270 -70.49964 38848 ft 533 kts 40°
2026-05-01 13:45 43.17848 -70.43364 38858 ft 533 kts 40°
2026-05-01 13:46 43.23463 -70.36703 38851 ft 533 kts 40°
2026-05-01 13:46 43.29067 -70.30039 38853 ft 533 kts 41°
2026-05-01 13:47 43.34674 -70.23354 38852 ft 533 kts 41°
2026-05-01 13:47 43.40277 -70.16657 38845 ft 534 kts 41°
2026-05-01 13:48 43.45870 -70.09955 38847 ft 534 kts 41°
2026-05-01 13:48 43.51466 -70.03231 38848 ft 534 kts 41°
2026-05-01 13:49 43.57023 -69.96537 38849 ft 534 kts 41°
2026-05-01 13:49 43.62621 -69.89778 38848 ft 534 kts 41°
2026-05-01 13:50 43.67264 -69.84157 38848 ft 534 kts 41°
2026-05-01 13:50 43.72847 -69.77383 38851 ft 534 kts 41°
2026-05-01 13:51 43.78425 -69.70599 38848 ft 534 kts 41°
2026-05-01 13:51 43.83999 -69.63801 38839 ft 534 kts 41°
2026-05-01 13:52 43.89561 -69.57000 38842 ft 534 kts 42°
2026-05-01 13:52 43.95133 -69.50169 38845 ft 534 kts 42°
2026-05-01 13:53 44.00695 -69.43332 38838 ft 534 kts 42°
2026-05-01 13:53 44.09030 -69.33056 38825 ft 534 kts 42°
2026-05-01 13:54 44.14580 -69.26190 38830 ft 533 kts 42°
2026-05-01 13:54 44.20124 -69.19312 38829 ft 533 kts 42°
2026-05-01 13:55 44.25657 -69.12430 38830 ft 533 kts 43°
2026-05-01 13:55 44.31175 -69.05550 38809 ft 532 kts 43°
2026-05-01 13:56 44.36632 -68.98728 38822 ft 532 kts 43°
2026-05-01 13:56 44.42124 -68.91845 38819 ft 531 kts 43°
2026-05-01 13:57 44.47580 -68.84987 38817 ft 530 kts 43°
2026-05-01 13:57 44.53096 -68.78034 38811 ft 530 kts 43°
2026-05-01 13:58 44.58530 -68.71171 38806 ft 529 kts 43°
2026-05-01 13:58 44.63991 -68.64253 38803 ft 529 kts 43°
2026-05-01 13:59 44.69444 -68.57326 38799 ft 529 kts 43°
2026-05-01 13:59 44.74896 -68.50383 38802 ft 528 kts 43°
2026-05-01 14:00 44.80342 -68.43428 38791 ft 528 kts 43°
2026-05-01 14:00 44.85776 -68.36471 38789 ft 528 kts 43°
2026-05-01 14:01 44.91214 -68.29491 38783 ft 528 kts 44°
2026-05-01 14:01 44.96635 -68.22513 38774 ft 527 kts 44°
2026-05-01 14:02 45.02058 -68.15515 38767 ft 527 kts 44°
2026-05-01 14:02 45.07473 -68.08508 38771 ft 527 kts 44°
2026-05-01 14:03 45.12871 -68.01503 38766 ft 526 kts 44°
2026-05-01 14:03 45.18225 -67.94537 38764 ft 526 kts 44°
2026-05-01 14:04 45.23617 -67.87508 38761 ft 525 kts 44°
2026-05-01 14:04 45.28992 -67.80487 38758 ft 525 kts 44°
2026-05-01 14:05 45.34343 -67.73444 38750 ft 524 kts 46°
2026-05-01 14:05 45.39558 -67.66220 38749 ft 524 kts 45°
2026-05-01 14:06 45.44846 -67.59075 38742 ft 524 kts 45°
2026-05-01 14:06 45.50125 -67.51910 38740 ft 524 kts 45°
2026-05-01 14:07 45.55360 -67.44769 38730 ft 523 kts 46°
2026-05-01 14:08 45.63239 -67.33978 38728 ft 523 kts 46°
2026-05-01 14:08 45.68488 -67.26764 38726 ft 524 kts 46°
2026-05-01 14:09 45.73736 -67.19534 38728 ft 523 kts 46°
2026-05-01 14:09 45.78981 -67.12281 38727 ft 523 kts 46°
2026-05-01 14:10 45.84186 -67.05056 38729 ft 524 kts 46°
2026-05-01 14:10 45.89412 -66.97784 38724 ft 524 kts 46°
2026-05-01 14:11 45.94638 -66.90490 38727 ft 524 kts 47°
2026-05-01 14:11 46.02478 -66.79508 38722 ft 524 kts 47°
2026-05-01 14:12 46.07700 -66.72169 38717 ft 525 kts 47°
2026-05-01 14:12 46.12808 -66.64970 38729 ft 525 kts 47°
2026-05-01 14:13 46.17151 -66.58832 38730 ft 525 kts 47°
2026-05-01 14:13 46.23251 -66.50189 38738 ft 526 kts 47°
2026-05-01 14:14 46.28479 -66.42759 38741 ft 526 kts 47°
2026-05-01 14:14 46.33656 -66.35381 38746 ft 527 kts 47°
2026-05-01 14:15 46.38871 -66.27928 38748 ft 527 kts 47°
2026-05-01 14:15 46.44070 -66.20475 38753 ft 527 kts 47°
2026-05-01 14:16 46.49281 -66.12985 38748 ft 527 kts 47°
2026-05-01 14:16 46.54487 -66.05480 38753 ft 527 kts 47°
2026-05-01 14:17 46.59690 -65.97958 38756 ft 527 kts 47°
2026-05-01 14:17 46.64885 -65.90426 38755 ft 527 kts 47°
2026-05-01 14:18 46.70052 -65.82913 38749 ft 527 kts 47°
2026-05-01 14:18 46.74349 -65.76649 38764 ft 527 kts 47°
2026-05-01 14:19 46.80392 -65.67799 38735 ft 523 kts 49°
2026-05-01 14:19 46.82886 -65.64111 38711 ft 509 kts 47°
2026-05-01 14:19 46.85365 -65.60530 38761 ft 492 kts 47°
2026-05-01 14:20 46.87734 -65.57087 38763 ft 470 kts 48°
2026-05-01 14:20 46.92164 -65.50552 38762 ft 435 kts 49°
2026-05-01 14:20 46.94223 -65.47506 38770 ft 419 kts 49°
2026-05-01 14:21 46.96236 -65.44528 38770 ft 404 kts 49°
2026-05-01 14:21 46.98171 -65.41664 38772 ft 389 kts 49°
2026-05-01 14:21 47.00038 -65.38899 38777 ft 374 kts 49°
2026-05-01 14:22 47.03526 -65.33729 38771 ft 344 kts 50°
2026-05-01 14:22 47.05167 -65.31296 38775 ft 327 kts 50°
2026-05-01 14:22 47.06704 -65.28933 38565 ft 317 kts 55°
2026-05-01 14:22 47.07994 -65.26301 37768 ft 320 kts 71°
2026-05-01 14:23 47.08657 -65.23229 36779 ft 312 kts 99°
2026-05-01 14:23 47.08203 -65.20307 35998 ft 283 kts 136°
2026-05-01 14:23 47.06784 -65.18667 35625 ft 250 kts 171°
2026-05-01 14:23 47.05150 -65.18856 35382 ft 238 kts 206°
2026-05-01 14:24 47.04026 -65.20680 34991 ft 259 kts 240°
2026-05-01 14:24 47.03939 -65.23463 34475 ft 299 kts 276°
2026-05-01 14:24 47.05098 -65.26201 33927 ft 339 kts 311°
2026-05-01 14:24 47.07252 -65.27819 33391 ft 360 kts 348°
2026-05-01 14:25 47.09725 -65.27652 32924 ft 353 kts 26°
2026-05-01 14:25 47.11694 -65.25809 32503 ft 323 kts 63°
2026-05-01 14:25 47.12589 -65.23075 32048 ft 278 kts 100°
2026-05-01 14:25 47.12262 -65.20572 31550 ft 233 kts 138°
2026-05-01 14:26 47.11213 -65.19387 31095 ft 210 kts 172°